Weather in Sorokino

Russia / Tyumen Oblast     57°49′43″N   67°28′29″E
temp.,
°C
wind,
m/s
gust,
m/s
humid.,
%
clouds,
%
prec.,
mm/h
press.,
hPa
HPBL,
m
24 may, tue
tue2423:00+7sse2597100 0.1 1007208
02:00+8se1496100 0.0 1008124
05:00+9sse2696100 0.1 1009189
08:00+14ssw488399 0.1 1009843
11:00+18ssw596194 0.3 10101598
14:00+15ssw389092 3.0 1011381
17:00+17sw2481100 4.3 1012376
20:00+15e229487 1.6 101243
25 may, wed
wed2523:00+13ne239696 3.3 101372
02:00+12e359799 0.4 101386
05:00+12se2589100 0.4 101392
08:00+17se3877100 0.0 1014254
11:00+24sse4842100 0.0 1013827
14:00+26sse51043100 0.0 10131941
17:00+25se5104797 0.0 10121428
20:00+20se31262100 0.0 1012349
26 may, thu
thu2623:00+18se41667100 0.0 1011472
02:00+17se312735 0.0 1011300
05:00+16ese4137539 0.0 1010308
08:00+21se413586 0.0 1009496
11:00+26se5104026 0.0 10081468
14:00+28se610355 0.0 10062522
17:00+27ese694416 0.0 10051958
20:00+23ese51354100 0.0 1003820
27 may, fri
fri2723:00+17nw2395100 2.1 1004119
02:00+14n4997100 1.7 1003320
05:00+12nw51097100 3.6 1004492
08:00+10wnw61195100 0.6 1005779
11:00+8wnw6149599 7.7 1008669
14:00+14nw59611 1.4 10101239
17:00+17wnw48493 1.4 10111628
20:00+13w25710 0.0 1012109
28 may, sat
sat2823:00+9w23840 0.0 101451
02:00+8w22835 0.0 101420
05:00+8wsw22837 0.0 101548
08:00+15wsw236313 0.0 1015400
11:00+18wsw224822 0.0 10141614
14:00+20wsw3345100 0.0 10141977
17:00+20w234350 0.0 10141965
20:00+15w237195 0.0 101471